Hutchinson, KS

10:19 AM CDT on April 25, 2018 (GMT -0500)
Hutchinson Municipal

Weather History for KHUT - April, 2014

Change the Weather History Date:

Tuesday, April 22, 2014

  Actual Average Record
Temperature  
Mean Temperature 62 °F -  
Max Temperature 78 °F 67 °F 91 °F (2006)
Min Temperature 48 °F 42 °F 35 °F (1998)
Degree Days  
Heating Degree Days 2    
Growing Degree Days 12 (Base 50)    
Moisture  
Dew Point 30 °F    
Average Humidity 29    
Maximum Humidity 45    
Minimum Humidity 18    
Precipitation  
Precipitation 0.00 in - - ()
Sea Level Pressure  
Sea Level Pressure 30.02 in    
Wind  
Wind Speed 10 mph (ESE)    
Max Wind Speed 16 mph    
Max Gust Speed 21 mph    
Visibility 10 miles    
Events      
Averages and records for this station are not official NWS values.
T = Trace of Precipitation, MM = Missing Value Source: NWS Daily Summary

Daily Weather History Graph

Daily Weather History Graph

Search for Another Location

Airport or City:

Astronomy

Apr. 22, 2014 Rise Set
Actual Time 6:46 AM CDT 8:14 PM CDT
Civil Twilight 6:18 AM CDT 8:41 PM CDT
Nautical Twilight 5:45 AM CDT 9:15 PM CDT
Astronomical Twilight 5:10 AM CDT 9:50 PM CDT
Moon 2:29 AM CDT (4/22) 1:23 PM CDT (4/22)
Length of Visible Light 14h 23m
Length of Day
13h 27m
Last Quarter, 46% of the Moon is Illuminated
Apr 22
Last Quarter
Apr 29
New
May 6
First Quarter
May 14
Full
May 21
Last Quarter

Hourly Weather History & Observations

Time (CDT) Temp. Dew Point Humidity Pressure Visibility Wind Dir Wind Speed Gust Speed Precip Events Conditions
1:52 AM 55.0 °F 26.1 °F 33% 30.09 in 10.0 mi NNE 8.1 mph - N/A   Clear
2:52 AM 54.0 °F 26.1 °F 34% 30.09 in 10.0 mi NNE 9.2 mph - N/A   Clear
3:52 AM 53.1 °F 26.1 °F 35% 30.08 in 10.0 mi NNE 8.1 mph - N/A   Clear
4:52 AM 48.9 °F 26.1 °F 41% 30.10 in 10.0 mi NNE 6.9 mph - N/A   Clear
5:52 AM 51.1 °F 27.0 °F 39% 30.09 in 10.0 mi NE 8.1 mph - N/A   Clear
6:52 AM 51.1 °F 28.0 °F 41% 30.10 in 10.0 mi ENE 8.1 mph - N/A   Clear
7:52 AM 52.0 °F 30.9 °F 45% 30.11 in 10.0 mi East 8.1 mph - N/A   Clear
8:52 AM 57.9 °F 32.0 °F 37% 30.12 in 10.0 mi East 8.1 mph - N/A   Clear
9:52 AM 61.0 °F 34.0 °F 36% 30.13 in 10.0 mi SE 8.1 mph - N/A   Clear
10:52 AM 66.0 °F 33.1 °F 29% 30.12 in 10.0 mi SSE 9.2 mph - N/A   Clear
11:52 AM 70.0 °F 28.9 °F 22% 30.10 in 10.0 mi SE 9.2 mph - N/A   Partly Cloudy
12:52 PM 73.0 °F 28.0 °F 19% 30.06 in 10.0 mi SSE 13.8 mph - N/A   Clear
1:52 PM 73.9 °F 28.0 °F 18% 30.03 in 10.0 mi South 8.1 mph - N/A   Scattered Clouds
2:52 PM 75.9 °F 30.0 °F 19% 30.01 in 10.0 mi SSE 12.7 mph 18.4 mph N/A   Scattered Clouds
3:52 PM 77.0 °F 30.0 °F 18% 29.97 in 10.0 mi SSE 12.7 mph - N/A   Scattered Clouds
4:52 PM 77.0 °F 30.9 °F 19% 29.94 in 10.0 mi South 16.1 mph 20.7 mph N/A   Partly Cloudy
5:52 PM 75.9 °F 30.9 °F 19% 29.91 in 10.0 mi SSE 15.0 mph - N/A   Clear
6:52 PM 73.0 °F 30.9 °F 21% 29.89 in 10.0 mi SSE 13.8 mph - N/A   Clear
7:52 PM 68.0 °F 32.0 °F 26% 29.89 in 10.0 mi SSE 10.4 mph - N/A   Clear
8:52 PM 64.0 °F 33.1 °F 31% 29.89 in 10.0 mi SE 9.2 mph - N/A   Clear
9:52 PM 62.1 °F 30.0 °F 30% 29.89 in 10.0 mi SE 11.5 mph - N/A   Clear
10:52 PM 61.0 °F 30.0 °F 31% 29.88 in 10.0 mi SE 12.7 mph - N/A   Clear
11:52 PM 60.1 °F 32.0 °F 35% 29.86 in 10.0 mi SE 11.5 mph - N/A   Clear